Weather History for KDVT - March, 2013

Change the Weather History Date:

Wednesday, March 20, 2013

  Actual Average Record
Temperature  
Mean Temperature 68 °F -  
Max Temperature 79 °F 76 °F 93 °F (1997)
Min Temperature 57 °F 51 °F 39 °F (2012)
Cooling Degree Days 3    
Growing Degree Days 18 (Base 50)    
Moisture  
Dew Point 35 °F    
Average Humidity 30    
Maximum Humidity 49    
Minimum Humidity 18    
Precipitation  
Precipitation 0.00 in - - ()
Sea Level Pressure  
Sea Level Pressure 29.89 in    
Wind  
Wind Speed 4 mph (East)    
Max Wind Speed 9 mph    
Max Gust Speed -    
Visibility 10 miles    
Events      
Averages and records for this station are not official NWS values.
T = Trace of Precipitation, MM = Missing Value Source: NWS Daily Summary

Daily Weather History Graph

Daily Weather History Graph

Search for Another Location

Airport or City:

Trip Planner

Search our weather history database for the weather conditions in past years. The results will help you decide how hot, cold, wet, or windy it might be!

Date:

Astronomy

Mar. 20, 2013 Rise Set
Actual Time 6:31 AM MST 6:40 PM MST
Civil Twilight 6:06 AM MST 7:05 PM MST
Nautical Twilight 5:37 AM MST 7:34 PM MST
Astronomical Twilight 5:08 AM MST 8:03 PM MST
Moon 12:33 PM MST (3/20) 1:58 AM MST (3/20)
Length of Visible Light 12h 58m
Length of Day
12h 08m
First Quarter, 60% of the Moon is Illuminated
Mar 20
First Quarter
Mar 27
Full
Apr 2
Last Quarter
Apr 10
New
Apr 18
First Quarter

Hourly Weather History & Observations

Time (MST) Temp. Dew Point Humidity Pressure Visibility Wind Dir Wind Speed Gust Speed Precip Events Conditions
12:53 AM 64.0 °F 37.0 °F 37% 29.96 in 10.0 mi Variable 4.6 mph - N/A   Clear
1:53 AM 63.0 °F 37.0 °F 38% 29.96 in 10.0 mi NNE 4.6 mph - N/A   Clear
2:53 AM 63.0 °F 36.0 °F 37% 29.96 in 10.0 mi NNE 9.2 mph - N/A   Clear
3:53 AM 62.1 °F 36.0 °F 38% 29.94 in 10.0 mi NNE 5.8 mph - N/A   Clear
4:53 AM 59.0 °F 37.0 °F 44% 29.94 in 10.0 mi Calm Calm - N/A   Clear
5:53 AM 57.9 °F 37.9 °F 47% 29.95 in 10.0 mi Calm Calm - N/A   Clear
6:53 AM 57.9 °F 39.0 °F 49% 29.96 in 10.0 mi Calm Calm - N/A   Clear
7:53 AM 60.1 °F 39.9 °F 47% 29.96 in 10.0 mi Calm Calm - N/A   Clear
8:53 AM 66.0 °F 37.9 °F 36% 29.98 in 10.0 mi Calm Calm - N/A   Clear
9:53 AM 70.0 °F 37.0 °F 30% 29.98 in 10.0 mi Calm Calm - N/A   Clear
10:53 AM 73.0 °F 34.0 °F 24% 29.97 in 10.0 mi Calm Calm - N/A   Clear
11:53 AM 75.9 °F 34.0 °F 22% 29.94 in 10.0 mi Variable 3.5 mph - N/A   Clear
12:53 PM 77.0 °F 33.1 °F 20% 29.92 in 10.0 mi Calm Calm - N/A   Clear
1:53 PM 79.0 °F 33.1 °F 19% 29.89 in 10.0 mi SSW 6.9 mph - N/A   Clear
2:53 PM 78.1 °F 32.0 °F 19% 29.85 in 10.0 mi SW 5.8 mph - N/A   Clear
3:53 PM 79.0 °F 32.0 °F 18% 29.84 in 10.0 mi Variable 4.6 mph - N/A   Clear
4:53 PM 78.1 °F 30.9 °F 18% 29.83 in 10.0 mi SSW 8.1 mph - N/A   Clear
5:53 PM 78.1 °F 32.0 °F 19% 29.81 in 10.0 mi Calm Calm - N/A   Clear
6:53 PM 77.0 °F 32.0 °F 19% 29.80 in 10.0 mi Calm Calm - N/A   Clear
7:53 PM 75.0 °F 34.0 °F 22% 29.80 in 10.0 mi SE 3.5 mph - N/A   Clear
8:53 PM 72.0 °F 37.0 °F 28% 29.80 in 10.0 mi ENE 5.8 mph - N/A   Clear
9:53 PM 69.1 °F 37.9 °F 32% 29.79 in 10.0 mi East 5.8 mph - N/A   Clear
11:53 PM 70.0 °F 36.0 °F 29% 29.74 in 10.0 mi East 5.8 mph - N/A   Clear